RH
27 26 25 24 23 22 22 21 21 21 21 21 22 22 23 23 24 25 25 26 26 26 25 25 24 24 23 21 20 19 18 18 16 16 15 14 13 12 12 11 10 10 10 9 9 8 8 8 8 7 7 7 6 6 6 6 5 5 5 5 5 5 5 6 5 5 6 6 6 6 6 6 6 5 5 5 5 5 5 5 4 4 4 4 3
24 23 23 22 22 22 22 22 23 24 25 25 26 27 27 28 28 28 28 28 27 26 25 24 23 23 22 20 20 19 17 17 16 15 14 14 13 12 12 11 11 10 10 9 9 8 8 8 7 7 7 7 7 6 6 6 6 5 5 5 5 5 5 5 5 5 5 5 5 6 6 5 5 6 5 5 5 6 5 5 5 5 4 4 4
20 20 21 21 22 23 24 25 26 27 27 28 27 27 27 26 26 26 25 25 24 24 23 23 22 22 22 21 20 19 18 17 16 16 15 14 13 13 12 11 11 11 10 10 9 8 8 8 8 7 7 7 7 6 6 6 6 6 5 5 5 5 5 5 5 5 4 5 5 5 5 5 5 5 5 5 5 5 6 5 5 5 5 5 4
20 22 23 24 25 26 26 27 27 28 28 28 28 28 27 26 26 25 25 24 24 24 23 23 23 23 22 22 21 21 20 19 18 17 16 15 14 13 13 12 11 11 10 10 9 9 9 8 8 8 7 7 7 6 6 6 6 6 5 5 5 5 5 5 5 5 5 5 4 4 5 5 5 5 4 5 5 5 5 5 6 6 6 6 5
24 25 26 27 28 28 29 29 29 29 28 28 28 28 27 27 27 26 26 25 25 24 24 23 23 23 22 22 22 21 21 20 19 18 17 17 16 14 14 13 12 11 11 11 10 9 9 9 8 8 8 7 7 7 7 6 6 6 6 6 5 5 5 5 5 5 5 5 4 4 5 4 4 5 4 4 4 5 5 5 6 7 7 7 7
26 27 28 29 30 30 31 31 31 30 29 29 28 28 28 27 27 27 26 26 26 25 25 25 25 24 24 24 23 22 22 21 20 20 19 19 18 17 16 15 14 13 12 12 11 11 10 10 9 9 9 8 8 8 7 7 7 6 6 6 6 6 6 6 6 6 6 6 5 4 4 4 4 4 4 4 4 4 5 5 6 7 8 8 8
29 30 31 32 32 33 33 32 32 31 30 30 29 29 29 28 28 28 28 28 28 28 28 28 28 28 27 26 26 25 24 23 23 22 22 21 20 19 18 17 16 16 15 14 13 12 12 11 11 10 10 10 9 9 9 8 8 8 7 7 7 7 7 6 7 7 6 6 5 5 5 5 5 4 4 4 4 4 5 6 7 8 8 9 9
33 33 33 33 32 31 31 30 30 29 29 29 29 29 29 29 29 29 30 30 30 30 31 30 30 30 29 29 29 28 27 26 26 25 25 24 23 22 21 20 19 18 17 16 15 14 14 13 12 12 11 11 10 10 10 10 10 9 9 9 9 8 8 8 8 8 8 7 7 6 5 5 6 5 4 4 5 4 5 6 8 9 10 10 10
33 32 30 28 27 26 25 25 25 26 26 27 27 28 28 29 30 30 31 32 32 33 33 33 33 33 33 33 32 32 31 30 30 30 29 28 27 26 25 24 23 21 20 19 18 17 16 15 14 14 14 14 13 13 13 13 13 12 11 11 11 10 10 10 9 8 8 8 8 7 7 7 7 6 6 5 5 4 5 8 9 10 11 12 12
28 26 25 24 24 24 23 24 24 24 26 26 27 28 29 30 32 33 34 35 35 36 36 37 39 38 39 39 38 37 37 35 35 35 33 32 31 30 28 27 25 24 22 20 19 18 17 17 16 16 16 16 16 16 16 16 16 15 15 15 15 14 13 12 12 12 10 9 9 9 8 8 8 8 8 6 6 6 7 8 9 10 11 12 13
23 23 23 23 23 23 23 23 24 24 26 26 27 29 30 32 34 35 37 38 39 40 42 43 44 45 46 45 45 44 43 41 41 39 38 37 35 34 32 30 28 26 23 22 20 19 19 18 17 16 16 16 16 17 17 17 17 17 17 17 17 17 17 16 14 12 12 11 10 10 10 9 8 9 9 8 8 7 8 9 11 12 12 12 13
21 22 23 23 23 24 24 24 25 26 27 28 30 31 33 35 37 39 40 41 43 44 46 49 50 51 52 51 51 51 49 48 47 44 42 40 38 39 39 34 31 29 26 24 23 22 21 20 19 18 18 18 19 18 17 17 18 20 22 23 23 23 25 31 32 26 20 19 15 12 11 10 9 10 10 9 10 10 11 11 11 12 12 11 12
21 22 24 24 25 26 27 28 29 30 31 32 33 35 37 38 40 42 42 44 45 47 49 52 54 55 56 56 56 55 54 54 52 49 46 43 42 44 44 39 35 31 29 27 26 25 24 23 22 21 21 23 24 22 20 20 22 26 30 32 30 28 30 40 50 48 43 42 35 23 15 14 13 10 9 12 14 14 13 12 21 34 32 18 11
23 25 26 28 29 30 31 32 33 35 36 37 38 39 40 42 43 44 45 46 47 49 51 53 55 57 58 59 59 58 57 58 56 53 50 46 46 48 47 43 37 33 32 30 29 28 28 28 28 27 27 29 29 27 25 25 28 34 38 39 37 35 34 35 40 42 45 50 48 33 21 19 18 13 13 21 24 20 21 30 50 72 68 38 19
27 29 30 32 33 34 36 37 38 39 41 42 43 44 46 47 47 48 49 49 50 50 52 54 55 57 59 60 60 59 59 60 60 59 54 49 49 50 48 43 38 35 34 33 33 34 34 36 37 35 36 37 34 38 45 47 50 54 53 49 43 42 41 38 35 35 36 40 42 38 29 24 23 18 18 26 32 35 48 65 80 94 92 70 49
32 33 34 36 37 38 40 41 43 45 46 48 50 52 54 55 56 57 56 56 56 55 54 55 56 57 59 60 61 61 62 63 64 64 59 53 52 52 48 42 39 38 37 37 39 41 42 46 47 47 51 49 47 60 77 83 85 86 80 71 63 56 47 40 40 43 47 48 46 43 36 30 29 33 37 45 56 67 81 92 96 99 101 95 82
35 37 39 40 41 43 45 46 48 49 51 54 56 58 61 63 65 67 67 66 66 65 63 61 60 60 60 61 63 63 64 66 67 67 63 56 54 53 49 46 44 42 42 44 46 48 50 55 59 64 67 64 64 79 94 98 99 100 97 94 94 85 66 51 47 51 62 73 73 63 53 47 50 61 72 82 89 94 99 100 99 100 100 100 95
39 41 42 44 45 47 48 49 51 53 55 58 59 61 64 66 70 74 74 75 75 76 75 72 70 68 67 66 68 67 66 68 69 69 66 61 56 54 53 52 49 49 51 52 54 57 59 61 68 76 79 77 79 90 99 101 100 101 100 100 104 99 81 68 66 62 65 79 88 84 77 75 81 89 95 99 100 100 101 99 98 100 101 101 98
43 44 45 47 49 50 52 53 54 55 57 59 61 63 65 68 73 77 80 82 83 84 85 83 80 79 77 75 74 73 71 71 71 71 69 64 60 60 63 61 57 58 62 63 63 65 66 68 74 82 87 88 91 96 101 99 94 95 99 102 105 95 79 76 83 78 72 77 86 92 91 91 96 100 99 100 101 100 101 99 98 101 102 100 99
46 47 49 51 52 53 55 56 57 58 59 61 63 65 68 71 75 79 84 87 89 89 89 89 87 85 83 81 80 79 77 75 74 74 72 66 64 69 74 71 68 71 75 76 76 74 73 76 78 83 90 95 95 99 99 88 80 87 97 104 105 94 81 85 92 88 84 85 88 95 100 99 99 100 99 100 100 100 100 100 99 101 101 100 100
49 50 52 54 55 57 58 59 60 61 62 64 65 66 70 74 77 82 87 90 91 91 91 92 91 89 87 86 84 82 81 79 78 77 73 68 67 74 81 81 82 88 89 86 85 83 81 82 80 81 88 94 94 94 88 77 78 91 101 103 101 94 90 97 100 96 96 97 94 95 100 101 100 100 100 100 100 100 100 100 100 100 101 101 101
53 54 55 57 58 59 60 61 62 63 64 66 67 67 71 75 78 82 88 93 94 94 93 94 93 90 88 87 85 83 83 82 81 78 74 69 67 75 87 92 95 101 99 93 89 87 86 85 82 81 83 87 89 89 85 83 87 93 97 99 96 93 97 103 103 101 102 102 99 98 99 100 100 100 99 100 100 100 100 100 100 100 100 101 100
56 57 58 59 60 61 62 63 64 65 66 67 67 68 70 73 77 82 89 95 98 96 94 94 93 89 86 84 82 80 80 82 83 80 75 72 69 75 88 98 102 104 101 95 90 88 87 85 83 83 84 87 91 91 88 88 85 78 80 87 90 92 100 103 101 102 103 101 99 99 99 100 100 100 100 100 100 100 100 100 100 100 100 100 100
58 60 61 61 62 63 63 65 66 68 69 70 69 68 69 71 75 81 89 97 100 98 95 94 93 89 85 81 78 76 75 79 83 81 76 74 72 77 88 96 100 100 98 94 92 91 91 90 90 93 97 98 97 90 82 81 80 75 77 81 80 83 94 101 100 99 101 102 99 96 98 101 100 101 101 100 100 100 100 100 100 100 100 100 100
61 62 63 64 65 66 66 68 70 71 72 73 72 70 69 70 73 78 87 96 100 99 96 95 94 90 85 80 74 71 70 74 78 79 77 75 73 77 85 91 92 93 94 94 95 95 95 97 99 102 101 98 93 85 82 86 88 85 84 81 73 69 76 90 99 101 100 100 98 96 99 101 100 101 101 100 101 101 100 99 99 100 101 100 100
64 65 66 67 68 69 70 71 72 74 75 76 76 74 71 70 72 76 85 95 100 99 97 96 95 91 86 80 73 68 67 68 73 78 78 74 72 73 77 81 84 87 90 92 95 96 95 98 101 100 95 93 91 89 93 97 93 86 82 79 76 74 73 81 92 99 99 98 98 99 100 100 100 101 99 100 102 101 99 97 96 98 101 100 100
67 68 70 70 71 72 73 73 75 78 79 80 81 79 76 74 73 75 83 92 97 98 98 99 100 96 89 80 72 67 65 65 69 76 77 75 74 72 70 71 75 78 81 84 86 87 91 96 99 97 93 90 90 92 98 101 96 90 84 82 86 91 92 91 92 93 96 98 100 101 101 99 100 100 99 100 102 101 100 99 98 100 103 102 102
71 72 74 74 75 76 76 77 79 81 82 84 86 85 83 80 76 75 83 93 98 101 103 104 103 98 87 75 68 65 65 65 69 75 77 77 76 72 68 68 71 73 78 81 79 79 85 93 97 96 94 90 88 91 98 102 100 94 89 88 94 100 101 101 99 95 96 99 99 98 100 100 99 100 100 100 100 100 101 101 100 102 103 104 103
74 76 77 78 79 79 80 81 82 84 85 86 88 90 90 88 82 77 81 89 96 102 104 102 99 93 81 72 68 67 66 66 70 77 82 83 82 77 73 74 79 83 86 86 81 79 85 92 95 97 97 94 92 96 101 102 100 97 94 95 99 100 99 102 104 100 98 99 98 97 100 99 97 98 101 100 99 101 102 101 100 101 101 102 102
76 78 78 80 81 82 83 85 86 88 89 89 90 91 92 93 91 84 80 82 90 100 105 101 99 97 89 79 75 75 74 73 76 85 91 91 88 83 79 80 89 96 95 88 83 84 87 90 94 100 101 99 100 104 103 97 94 96 99 100 99 100 99 101 102 101 100 100 100 100 100 99 97 100 102 100 99 102 103 102 100 101 100 100 99
78 79 81 83 84 85 86 89 91 93 94 93 93 92 91 93 94 92 87 83 86 95 104 104 101 102 101 93 86 84 83 82 85 92 97 96 91 84 79 83 96 104 98 88 84 86 88 90 96 103 103 101 103 106 100 91 90 95 100 100 99 100 100 100 101 101 100 100 100 100 100 100 100 101 101 99 98 100 102 102 100 100 100 100 99
81 82 85 86 87 89 91 93 94 95 96 96 95 94 93 91 90 91 92 88 85 88 97 104 104 104 104 102 96 92 89 89 92 97 99 98 93 85 79 85 99 105 97 89 86 85 86 89 96 103 104 101 103 105 99 92 92 97 100 99 99 100 100 100 101 102 100 100 100 100 100 100 100 100 101 100 98 99 101 102 101 100 100 100 101
83 85 88 88 90 92 94 95 97 98 98 97 96 96 95 93 90 89 89 89 87 86 88 96 103 104 104 104 103 101 98 98 99 101 102 101 95 86 82 89 100 102 95 89 85 83 85 90 96 103 106 103 101 103 103 98 95 98 100 100 100 100 100 100 100 101 101 100 100 99 100 100 100 100 101 101 100 100 101 101 101 101 100 100 100
86 89 92 93 93 95 97 99 100 100 99 98 97 96 97 96 94 91 88 87 87 85 84 87 93 98 101 103 104 105 104 104 104 105 107 105 97 88 85 91 99 101 96 89 82 79 83 90 96 102 106 105 100 100 102 102 99 97 99 100 100 100 100 100 100 100 101 100 100 100 100 100 100 100 100 100 101 100 101 101 101 101 101 100 100
87 92 96 97 97 97 98 100 101 100 98 97 97 97 98 98 98 96 94 91 88 86 84 82 84 88 93 97 99 101 102 104 106 107 108 104 96 88 87 90 95 97 95 90 84 82 85 91 97 101 103 105 103 99 98 100 101 99 98 100 100 100 100 100 100 100 100 100 100 100 100 100 100 100 100 100 101 100 100 100 100 101 101 101 100
84 91 97 100 99 99 100 102 103 102 101 99 99 99 99 100 100 99 98 96 93 90 87 84 82 83 87 91 94 96 98 101 105 107 107 104 97 90 88 90 92 93 94 92 91 91 92 94 98 100 101 103 105 101 95 96 99 100 100 100 100 100 100 100 100 100 100 100 100 100 100 100 100 100 100 100 100 100 100 100 100 100 100 100 100
77 87 95 100 101 101 102 104 104 103 101 100 100 100 99 100 101 101 100 99 97 94 91 88 85 82 82 86 89 93 97 101 104 106 107 106 101 95 92 94 95 95 96 98 99 99 99 99 99 100 100 101 103 103 98 95 96 99 100 100 100 100 100 100 100 100 100 100 100 100 100 100 100 100 100 100 99 100 100 100 100 100 100 100 100
66 76 87 96 100 102 103 104 103 102 101 100 101 101 101 100 101 101 101 101 99 96 93 91 89 85 82 81 83 86 92 98 103 105 107 107 104 100 97 99 102 101 101 103 104 103 102 100 99 100 101 100 101 102 101 98 95 95 97 99 100 100 100 100 100 100 100 100 100 100 100 100 100 100 100 100 100 100 100 100 100 100 100 100 100
56 64 75 87 96 102 103 103 103 102 101 100 101 101 101 101 100 100 100 100 101 100 96 93 92 91 87 83 81 80 84 90 97 101 103 104 104 102 99 99 102 103 102 102 104 105 103 100 98 99 101 101 101 101 101 100 97 94 92 95 98 100 100 100 100 100 100 100 100 100 100 100 100 100 100 100 100 100 100 100 100 100 100 100 100
51 55 63 74 87 98 103 105 105 104 101 100 101 101 102 102 100 99 99 99 100 101 100 97 95 94 91 88 84 80 79 83 88 94 98 99 99 99 98 97 99 101 100 100 101 104 105 102 98 97 99 100 101 101 101 101 99 95 91 89 92 96 99 100 100 100 100 100 100 100 100 100 100 100 100 100 100 100 100 100 100 100 100 100 99
49 52 56 63 74 87 99 105 107 104 101 100 101 102 103 103 102 100 99 98 99 100 100 100 99 97 95 93 90 85 81 80 82 87 92 95 95 95 95 96 97 99 100 99 99 102 105 104 100 97 98 100 101 100 100 100 100 98 94 89 87 89 94 98 100 100 99 100 100 100 100 100 100 100 100 100 100 100 100 100 100 100 100 100 100
51 51 53 57 64 75 87 98 103 104 102 100 100 102 102 102 102 101 99 98 99 100 100 100 100 99 98 97 95 91 88 85 83 84 87 91 93 93 94 95 97 99 100 99 99 100 103 105 104 99 97 99 100 100 100 100 99 99 97 93 88 86 88 93 98 100 100 100 100 100 100 100 100 100 100 100 100 100 100 100 100 100 100 100 100
53 54 55 56 59 64 72 80 89 97 102 101 100 100 101 101 102 102 101 100 99 100 100 100 100 100 100 99 97 95 93 91 88 86 86 89 92 93 93 94 97 99 100 100 100 99 101 106 107 103 100 99 100 100 100 100 100 99 98 97 94 91 89 90 94 98 100 100 100 100 100 100 100 100 100 100 100 100 100 100 100 100 100 100 100
57 58 58 58 58 60 62 64 70 80 92 100 103 102 101 101 101 101 100 101 100 99 100 101 100 100 100 100 99 97 96 95 93 90 87 88 90 93 94 94 96 100 102 102 101 101 102 105 107 105 102 100 101 101 100 100 100 100 99 98 98 97 95 92 92 94 97 99 99 100 100 100 100 100 100 100 100 100 100 100 100 100 100 100 100
60 61 61 61 60 58 57 58 59 64 73 87 99 104 103 101 101 100 100 100 100 100 100 100 100 100 100 100 100 99 97 97 97 95 91 88 89 91 94 94 96 100 103 103 102 102 103 105 107 107 103 100 100 102 102 101 101 100 100 100 100 99 98 96 95 94 94 94 94 96 98 100 100 100 100 100 100 100 100 100 100 100 100 100 100
62 63 63 62 58 54 52 53 54 55 59 68 83 97 102 101 100 101 101 101 100 100 100 100 100 100 100 100 100 100 99 98 99 99 96 92 89 90 92 94 95 98 102 104 102 103 105 107 108 108 106 102 100 102 104 102 101 100 100 100 100 100 99 99 98 96 94 92 90 90 92 96 100 101 100 100 100 100 100 100 100 100 100 100 100
64 65 64 59 52 48 47 48 50 53 54 57 68 85 98 101 100 100 101 101 101 101 101 100 100 100 100 100 100 100 100 99 100 100 101 98 93 90 91 93 95 97 101 104 103 103 105 108 108 107 107 105 102 102 104 103 101 100 101 100 100 100 100 100 100 98 96 93 91 88 87 90 95 99 101 101 100 100 100 100 100 100 100 100 100
67 68 64 55 49 47 49 51 52 54 56 56 61 74 90 100 101 100 100 101 101 101 101 101 100 100 100 100 100 100 100 100 100 101 102 102 99 93 91 92 95 96 100 104 105 103 104 107 107 105 105 106 104 102 103 103 101 100 101 100 100 100 100 100 100 100 98 96 94 90 87 86 88 94 99 101 101 100 100 100 100 100 100 100 100
70 70 64 55 49 50 53 55 56 58 59 59 61 70 85 98 102 101 100 100 100 100 101 101 100 100 100 100 100 100 100 100 100 100 101 104 104 100 94 92 93 96 98 102 105 104 103 105 107 106 105 106 105 104 103 103 101 100 101 101 100 100 100 100 100 100 99 99 98 96 93 89 87 88 93 98 100 101 101 100 100 100 100 100 100
71 73 68 59 52 51 54 58 60 61 61 61 63 71 85 97 102 101 100 100 100 100 100 100 100 101 100 100 100 101 100 100 100 100 100 102 105 106 102 96 93 94 97 101 104 105 104 104 106 106 105 106 106 106 104 103 101 100 100 101 100 100 100 100 100 100 100 100 100 99 99 97 93 90 90 92 95 98 100 100 99 99 100 100 100
70 73 72 66 58 54 54 58 62 65 66 65 66 73 85 97 102 101 100 100 100 100 100 100 100 100 100 100 100 100 100 100 100 100 100 100 101 105 107 104 97 94 96 100 103 104 103 104 105 106 106 106 107 107 106 104 102 100 100 101 101 100 100 100 100 100 100 100 100 100 100 100 99 97 95 93 92 93 94 95 95 96 96 96 97
Wind_Speed
42 42 42 42 41 41 41 41 41 41 41 41 42 42 42 43 43 44 44 45 45 46 46 46 47 47 48 48 48 48 48 48 48 49 49 49 49 49 50 50 51 51 51 51 51 52 52 52 53 53 54 54 55 55 55 55 56 57 57 58 58 59 59 60 64 65 63 63 62 61 61 60 60 59 58 58 58 58 59 60 60 60 60 61 61
42 42 43 43 43 43 43 42 42 42 42 42 42 43 43 44 44 45 45 46 46 46 47 47 47 48 48 48 48 48 48 48 49 49 49 49 49 49 49 50 50 51 51 51 51 52 52 52 53 53 54 54 55 55 56 56 56 57 57 58 58 59 59 60 62 65 65 64 63 63 62 62 62 61 60 60 59 59 60 60 61 61 61 61 61
42 42 42 43 43 43 43 43 44 44 44 44 44 44 44 45 45 46 46 46 46 47 47 47 48 48 48 48 48 48 48 48 49 49 49 49 49 49 49 50 50 50 50 51 51 51 52 52 53 53 53 54 54 55 55 55 56 56 56 57 58 58 58 59 61 64 65 65 65 64 63 63 63 62 62 62 60 59 60 61 61 61 61 62 61
44 44 43 43 43 43 43 43 44 44 45 45 45 45 46 46 46 47 47 47 47 47 47 47 47 48 48 48 48 48 48 48 48 49 49 49 49 49 49 50 50 50 50 50 50 51 52 52 52 52 53 54 54 54 54 55 55 55 56 56 57 57 57 58 59 61 63 65 65 65 64 64 64 64 63 64 62 60 60 60 61 62 62 62 62
45 45 45 45 45 44 44 44 44 45 45 45 46 46 46 46 47 47 47 47 47 47 47 48 48 48 48 48 48 48 48 49 48 48 48 48 49 49 49 49 49 49 49 49 50 50 51 51 51 52 52 53 53 53 53 53 53 54 55 55 55 56 56 57 58 59 61 64 64 64 65 65 66 65 64 64 64 62 61 60 60 60 61 62 63
45 45 45 45 46 46 46 46 45 45 45 45 46 46 46 46 46 46 47 47 47 47 48 48 48 48 48 48 48 48 48 48 48 48 48 48 48 49 49 49 49 49 49 49 49 50 50 50 50 51 51 51 52 52 52 52 53 53 54 54 54 55 55 56 56 57 59 61 62 63 64 65 66 66 65 64 64 64 62 60 60 60 61 62 63
44 44 45 45 45 45 45 45 45 45 45 46 46 46 46 46 46 46 46 46 47 47 47 47 47 48 48 48 48 48 48 48 48 47 47 48 48 48 48 48 48 48 49 48 49 49 49 49 49 49 50 50 50 50 51 51 52 53 53 53 54 54 55 55 55 56 58 59 61 62 63 64 65 65 64 64 64 64 62 61 60 61 61 62 62
47 46 46 45 45 45 45 45 44 44 44 44 45 45 45 45 45 45 46 46 46 46 46 47 47 47 47 47 47 47 47 47 47 47 47 47 48 48 48 48 48 48 49 48 48 49 49 49 48 48 48 48 49 49 50 50 51 52 52 52 53 54 54 55 55 56 57 58 59 60 61 62 63 64 64 64 63 63 60 59 59 60 60 62 62
48 48 47 47 47 47 46 46 45 45 44 44 44 44 44 44 44 44 45 45 46 46 46 46 46 46 46 46 46 46 47 46 46 46 46 47 47 47 47 47 47 48 48 48 48 48 48 48 47 47 46 47 47 48 48 48 49 51 51 51 52 53 54 54 55 55 56 57 57 58 59 60 61 63 64 63 62 60 57 56 57 59 60 61 62
48 47 47 46 46 46 46 46 46 45 45 44 44 44 44 44 44 44 44 45 45 45 45 45 45 45 45 45 45 45 45 45 45 45 45 46 46 47 47 47 47 48 48 48 48 47 47 47 46 45 45 45 45 46 46 47 47 49 49 49 50 51 52 53 54 54 55 56 56 56 58 59 60 61 61 61 60 57 55 55 56 58 59 61 62
47 46 46 45 45 45 45 45 45 44 44 44 44 44 44 44 44 45 45 45 45 45 44 44 45 45 45 45 45 45 44 44 44 44 44 44 44 45 46 47 48 48 48 49 48 47 46 46 45 45 44 44 44 44 45 46 46 46 47 47 47 48 49 50 52 53 54 55 56 56 57 58 58 58 58 58 58 56 54 53 54 56 59 61 63
45 44 44 43 44 44 44 44 44 44 44 44 44 44 44 45 45 45 45 45 45 45 44 44 44 44 45 45 44 44 44 43 43 43 43 42 41 41 44 46 47 48 48 48 48 47 46 45 44 43 43 43 43 43 44 44 44 44 44 44 45 45 45 46 48 50 51 53 54 55 56 57 57 57 56 55 55 54 52 52 53 56 58 61 62
42 42 42 42 43 43 44 44 44 44 44 44 44 45 45 45 45 46 46 46 46 45 45 45 45 45 45 45 44 44 43 43 43 42 42 41 40 40 42 44 46 47 47 47 46 46 45 44 44 43 42 41 42 42 43 42 42 41 41 42 43 44 44 43 44 47 49 50 52 54 55 55 56 57 55 52 51 51 51 51 49 49 52 57 61
41 41 41 41 42 43 44 44 44 45 45 45 46 46 46 46 46 46 47 47 46 46 46 46 46 45 45 45 45 44 43 43 42 42 41 40 39 39 41 43 44 45 45 45 45 44 44 44 44 43 41 41 41 42 42 41 40 40 39 40 41 42 44 44 44 46 48 49 52 54 54 53 54 55 52 49 48 47 47 46 42 39 43 51 56
40 41 41 42 43 43 44 45 45 46 46 47 47 47 47 47 47 47 48 48 48 47 47 47 47 46 46 46 46 45 43 43 43 42 40 39 38 39 41 42 43 43 43 43 43 43 43 43 43 42 41 40 40 39 39 38 38 37 38 39 40 41 42 43 44 46 48 50 51 53 53 53 52 52 51 48 46 44 41 39 36 35 38 44 48
40 40 41 42 43 44 45 45 46 46 47 47 47 47 48 48 48 48 49 49 48 48 48 48 47 47 46 46 46 46 44 42 42 41 40 39 38 39 41 41 41 41 42 42 42 42 42 42 42 41 40 40 39 36 34 33 33 34 36 38 41 42 42 42 42 43 44 47 48 49 50 50 48 48 47 45 42 39 36 34 34 35 38 41 43
40 40 41 42 43 44 45 45 46 46 47 47 47 47 48 48 48 48 49 49 48 48 48 48 48 47 47 46 46 46 44 42 41 40 39 38 37 38 40 40 40 41 41 41 41 41 41 40 40 39 39 39 38 34 31 30 30 32 34 36 39 43 44 43 42 41 40 41 43 45 45 44 43 42 42 41 39 35 33 34 35 36 37 40 42
40 40 41 42 43 43 44 45 46 46 47 47 47 47 48 48 48 48 49 49 49 48 48 47 47 47 46 45 46 45 44 42 40 39 38 37 37 37 39 40 40 40 40 39 39 39 39 38 38 38 39 38 35 32 30 29 29 31 32 34 38 43 44 43 43 42 39 38 39 42 42 40 38 38 38 39 39 37 37 37 37 36 37 38 39
40 41 41 42 42 43 44 45 45 46 46 47 47 47 48 48 48 49 49 49 49 48 47 47 46 45 44 44 44 44 43 41 40 38 36 36 36 36 37 39 39 39 39 38 38 38 37 37 37 36 35 34 31 29 29 29 28 30 32 35 40 44 43 41 42 42 39 38 38 41 43 41 39 38 39 39 40 40 41 41 39 39 40 40 40
40 41 41 42 42 43 44 45 45 46 47 47 48 48 48 48 49 49 49 49 49 47 46 46 45 44 43 42 42 42 42 40 39 37 36 34 34 34 36 38 39 39 39 38 37 37 36 36 37 35 32 30 30 29 29 28 27 29 33 37 41 43 41 39 40 39 37 37 37 37 41 42 41 41 41 41 41 41 42 43 43 42 42 43 43
40 41 41 42 42 43 44 45 45 46 47 47 48 48 48 48 49 49 49 49 48 47 45 45 44 43 42 41 41 40 40 40 38 36 35 34 32 32 34 37 38 37 38 37 37 38 37 37 38 37 34 32 31 31 31 29 28 30 34 36 37 37 37 37 37 36 34 34 34 34 36 39 41 43 44 43 42 42 42 43 44 43 42 43 44
41 41 41 42 42 43 44 44 45 45 46 47 48 48 48 48 49 49 49 48 47 46 44 44 44 43 41 40 40 39 39 38 37 35 33 32 32 31 33 35 34 33 36 38 38 38 38 38 39 39 38 34 32 32 32 31 31 33 34 33 31 31 33 35 35 35 33 32 32 31 32 33 36 39 42 44 43 42 41 41 43 43 42 43 43
41 41 41 42 43 43 44 44 44 45 45 46 47 48 48 48 49 48 48 47 46 45 43 43 42 42 41 40 39 38 38 36 35 33 32 31 31 31 31 32 31 32 36 38 39 39 40 40 40 40 38 35 34 34 33 33 34 33 32 32 31 31 32 32 32 33 32 31 30 29 28 28 30 33 37 41 44 44 41 40 42 42 42 42 43
41 41 42 43 43 43 44 44 44 44 45 46 47 47 47 48 48 48 47 46 45 44 42 42 41 41 40 40 39 38 37 35 33 32 31 30 31 31 31 31 31 33 36 37 38 40 41 40 39 38 38 37 37 37 35 34 34 33 32 32 33 33 33 31 30 30 30 29 28 26 25 26 29 30 32 34 38 42 43 42 41 41 42 42 42
41 41 42 43 43 44 44 44 44 44 44 45 45 46 47 47 47 47 46 45 44 43 42 41 40 40 40 40 39 38 36 34 31 30 30 29 30 30 31 31 32 32 33 34 35 38 38 37 37 39 40 40 40 38 35 32 32 32 33 34 35 35 35 34 31 28 28 29 28 26 26 27 28 28 28 29 32 36 40 43 44 43 43 43 43
41 42 42 43 44 44 44 44 44 44 44 44 45 45 45 46 46 46 45 44 43 42 41 40 40 40 39 39 39 38 36 33 30 29 29 29 29 29 29 29 29 29 29 30 31 33 34 34 36 40 41 41 40 38 35 32 31 33 34 36 37 37 36 36 33 30 28 28 28 28 28 27 26 26 26 26 29 31 33 38 44 48 48 47 45
41 41 42 43 44 44 45 45 44 44 44 44 44 44 44 45 45 45 45 44 43 42 41 40 39 39 39 39 39 38 35 32 29 28 29 29 29 29 29 27 27 26 26 26 27 27 27 28 32 36 39 39 38 37 36 34 34 35 35 34 34 34 34 35 35 31 28 28 28 29 29 27 25 25 25 26 27 29 30 32 38 46 51 51 49
41 41 42 43 43 44 44 44 44 44 44 44 44 43 43 43 44 44 43 43 43 41 40 39 38 38 39 39 38 37 35 32 30 28 29 29 30 30 29 27 26 25 25 25 25 23 23 24 27 30 33 34 34 33 34 34 34 34 32 28 26 27 30 33 33 30 27 26 27 29 29 27 26 26 27 27 27 27 29 30 31 36 42 47 50
42 41 42 42 43 44 44 44 44 44 44 45 44 44 42 41 42 43 42 41 41 40 39 38 37 38 39 39 38 37 36 34 31 30 30 31 31 32 31 29 29 28 27 27 26 24 23 24 24 25 27 28 27 26 27 28 28 26 24 22 20 21 26 30 30 28 26 26 27 29 29 27 27 27 28 28 27 26 27 29 28 29 32 36 40
42 42 42 42 43 44 44 44 44 45 45 45 45 44 43 41 40 41 41 41 40 39 38 37 36 37 39 39 38 39 38 36 34 32 31 31 32 33 31 30 30 29 29 28 27 25 25 24 23 23 23 23 22 21 21 21 20 17 17 18 18 17 22 27 29 28 27 26 27 28 27 26 28 29 28 27 26 26 26 27 27 28 29 31 34
43 43 43 43 44 44 45 45 45 45 45 45 45 45 44 41 39 38 38 39 38 36 35 35 34 35 37 38 38 38 38 37 35 34 33 32 33 33 31 29 29 30 30 28 27 25 25 24 22 22 22 21 21 19 18 18 15 13 14 15 15 14 18 23 26 28 28 27 26 25 25 26 28 29 28 28 27 26 26 27 27 27 28 29 31
43 43 43 44 45 45 45 45 45 45 45 45 45 45 44 43 41 38 36 36 35 34 33 33 32 32 34 36 37 38 38 37 36 35 34 33 33 33 31 29 28 30 30 28 27 26 24 23 22 22 21 21 21 19 17 16 14 13 14 14 12 11 13 19 24 27 28 27 25 24 24 25 27 27 28 28 28 26 26 27 27 27 27 28 29
42 43 43 44 45 45 45 45 45 45 45 45 45 44 44 44 43 41 37 35 33 32 31 32 32 32 31 32 35 36 36 36 36 35 34 33 33 33 31 29 28 29 29 27 26 25 23 22 22 21 20 21 22 20 18 17 15 14 14 14 12 11 10 12 19 25 28 28 27 25 25 24 25 26 27 27 27 26 25 25 26 26 27 27 26
41 42 43 44 45 45 45 45 45 45 45 45 44 44 43 43 43 42 41 38 35 32 30 29 31 32 30 30 31 32 33 33 33 33 32 32 33 32 30 28 28 28 28 27 26 24 22 20 19 20 20 21 23 22 20 18 16 15 14 14 13 12 11 10 11 18 25 29 29 28 26 25 24 25 25 25 25 24 23 23 24 25 26 26 25
41 41 42 43 44 44 44 44 44 44 44 44 44 44 43 43 42 42 41 40 38 36 32 29 30 31 31 30 29 29 30 30 30 30 30 31 32 31 29 27 27 26 26 26 25 24 22 20 18 18 18 20 22 23 22 19 17 16 15 14 13 12 11 11 9 9 17 25 29 30 29 27 25 24 24 23 23 24 23 23 23 23 24 24 23
40 41 41 42 43 44 44 44 43 44 44 43 44 43 43 42 42 41 41 40 39 38 36 33 30 30 30 30 28 27 27 28 28 29 29 30 31 30 28 27 26 25 24 24 24 24 23 21 19 18 18 18 21 23 23 21 19 17 16 15 14 12 11 11 9 7 9 16 23 28 30 30 29 26 24 23 22 22 22 22 21 21 22 22 23
40 40 41 41 42 43 43 43 43 43 43 42 43 43 42 42 41 41 40 39 38 38 37 35 33 30 29 29 28 26 25 26 27 28 28 28 29 29 29 27 26 25 24 24 24 24 23 21 20 18 18 18 19 22 23 23 22 20 18 16 15 13 11 10 9 8 6 10 16 21 25 28 29 28 27 24 21 19 19 20 21 21 20 20 21
39 39 40 41 42 42 43 43 43 42 42 42 42 42 42 42 41 41 40 39 38 37 36 36 34 32 30 29 28 26 25 24 25 25 26 27 27 28 28 27 25 24 24 23 23 24 23 21 20 19 18 18 19 20 23 24 24 22 20 18 16 15 13 11 10 8 7 7 11 16 20 23 26 28 28 26 22 18 17 18 20 20 19 19 20
39 39 39 40 41 41 42 42 42 42 42 42 41 41 41 41 41 41 40 39 38 37 36 35 35 33 32 30 29 27 25 24 23 24 24 25 25 26 26 25 24 23 23 22 22 23 22 21 19 18 18 19 19 20 22 23 24 23 22 20 18 17 16 14 12 10 8 7 8 12 15 17 20 25 27 26 23 20 18 18 18 17 17 16 17
40 39 39 39 40 41 41 42 42 42 42 42 41 41 41 41 41 40 40 39 38 37 36 35 34 33 32 31 30 28 26 24 24 24 23 23 23 24 24 24 23 22 22 21 21 21 21 20 19 18 18 18 18 19 20 22 23 24 23 22 20 19 17 16 15 13 11 9 8 9 11 13 16 21 25 25 23 21 19 18 17 15 13 14 15
40 40 40 40 40 40 41 41 41 41 41 41 41 41 41 41 41 40 40 39 39 37 36 35 34 33 32 31 30 29 28 25 24 24 24 23 22 23 23 23 22 21 20 20 20 20 20 20 19 18 17 17 18 18 19 21 22 23 23 23 23 21 19 18 17 16 14 12 9 9 10 12 15 19 22 23 21 20 19 19 18 17 15 15 17
40 40 40 40 40 40 40 40 41 41 40 40 40 40 40 41 41 41 40 40 39 38 37 35 33 33 32 31 30 30 29 27 25 25 24 23 22 22 22 23 22 21 20 19 19 19 19 18 18 18 17 17 17 18 18 19 20 21 22 23 24 23 21 20 19 18 17 15 13 11 10 12 14 18 20 20 20 20 20 20 20 20 19 19 20
40 41 40 40 40 40 40 40 40 40 40 40 40 40 40 40 40 40 40 40 39 39 38 36 34 33 31 30 30 30 28 27 26 25 25 24 23 22 22 22 22 21 20 19 19 18 18 17 17 17 17 17 17 17 18 18 19 20 21 22 23 24 23 22 21 20 19 19 17 14 13 12 14 17 18 19 19 20 20 20 21 22 22 22 22
40 41 40 40 40 40 40 41 41 40 40 40 39 39 39 40 40 40 40 40 39 39 38 37 35 33 31 30 30 29 28 28 27 26 25 24 23 22 22 22 22 21 20 19 19 18 18 17 17 16 16 17 17 17 17 17 17 18 20 21 21 22 23 23 22 22 21 21 20 18 16 15 15 16 17 18 20 21 22 22 23 23 24 24 24
40 40 41 41 41 41 41 41 41 41 41 40 39 39 39 39 40 40 40 40 39 39 38 38 36 34 32 31 30 29 28 28 27 26 25 25 23 22 22 22 22 21 20 19 19 18 18 17 16 16 16 16 16 16 17 17 17 17 18 19 20 20 21 22 22 23 22 22 22 21 20 18 17 17 17 18 20 23 24 24 24 25 25 26 26
39 40 41 42 42 42 42 42 42 42 41 41 40 39 39 39 39 40 40 40 40 39 39 38 37 36 34 32 30 29 28 28 27 26 25 25 24 23 21 21 21 21 20 19 19 18 18 17 17 16 16 16 16 16 16 16 17 17 17 18 18 18 19 20 21 22 23 23 23 22 22 21 20 20 19 19 20 23 25 26 26 26 27 27 27
39 40 41 42 43 43 43 43 43 42 42 41 40 40 39 39 39 39 39 39 39 39 39 38 37 37 35 33 31 29 28 28 27 26 26 25 25 23 22 21 21 21 20 20 19 18 18 17 17 16 15 15 15 15 15 15 16 16 17 17 17 17 18 19 20 21 22 23 23 23 23 23 23 22 21 20 21 23 26 27 27 27 27 28 28
39 40 42 42 43 43 43 43 43 43 43 42 41 40 39 39 39 39 39 39 39 39 39 39 38 37 36 35 33 30 29 27 27 27 26 25 25 24 23 21 21 21 21 20 19 18 18 17 17 16 15 15 15 15 15 15 15 16 16 16 16 16 17 18 18 19 20 22 23 23 24 24 24 24 24 23 22 23 25 28 29 28 28 28 28
39 41 42 43 43 43 44 44 44 44 43 43 41 40 39 39 38 38 38 38 38 38 39 39 38 38 37 36 34 32 30 28 27 27 26 25 25 25 24 22 21 21 21 20 19 19 18 17 17 16 16 15 15 15 14 14 15 16 16 16 16 16 16 17 17 18 19 21 22 23 23 24 24 25 25 25 25 24 25 27 29 30 30 29 28
39 41 42 43 43 43 44 44 44 44 44 43 42 41 40 39 38 38 38 38 38 38 38 39 39 38 38 36 35 33 31 29 27 26 26 26 25 25 25 23 22 21 21 20 19 19 18 17 17 16 16 15 15 15 14 14 14 15 16 16 15 15 16 16 17 17 18 19 20 21 22 23 24 25 26 26 27 27 26 27 28 29 30 30 30
40 41 42 43 43 44 44 44 44 44 44 43 43 41 40 39 39 38 38 38 38 38 38 38 39 39 38 37 35 34 32 30 28 27 26 26 25 25 25 24 23 21 21 20 20 19 18 18 17 16 16 15 15 14 14 14 14 15 15 16 15 15 15 16 16 17 18 18 19 20 21 21 22 23 24 26 27 28 29 29 29 29 30 30 30
Wind_Direction
312 311 310 309 308 306 305 303 302 301 300 299 298 297 296 295 294 293 292 291 290 290 289 288 288 287 286 286 285 284 283 282 281 280 279 278 277 277 276 275 274 274 273 272 272 271 270 269 268 268 268 267 266 266 265 265 264 264 264 264 264 264 264 265 266 266 265 265 264 262 263 263 263 263 264 264 264 265 265 265 264 264 264 264 263
310 309 308 307 307 306 305 304 303 301 300 299 298 297 296 295 294 294 293 292 291 290 290 289 288 287 287 286 286 285 284 283 283 282 281 280 279 277 276 275 275 274 274 273 273 272 271 270 269 268 268 267 266 266 265 265 264 264 264 264 263 263 264 264 265 266 266 266 265 264 264 264 263 263 264 264 263 265 265 265 265 264 264 263 263
309 308 307 306 305 305 304 303 303 302 301 301 300 299 298 297 296 295 294 293 292 291 290 290 289 289 288 287 287 286 285 285 284 283 282 281 279 278 277 276 275 274 274 273 273 272 272 271 270 269 269 268 267 267 266 265 265 264 264 264 263 263 263 263 264 265 266 266 266 265 264 265 264 263 264 264 264 264 264 265 265 265 264 264 263
311 310 309 307 306 305 304 303 303 302 301 301 300 299 298 297 297 296 295 294 293 292 291 291 290 290 289 289 288 287 286 286 285 284 283 282 281 279 278 277 276 275 275 274 273 273 272 271 271 271 270 269 268 268 267 267 266 265 264 264 264 263 263 263 263 265 266 266 266 266 265 265 264 263 264 264 264 264 263 264 264 265 265 264 263
312 311 310 310 309 308 306 305 304 303 302 301 300 299 298 297 296 295 294 294 293 293 292 292 291 291 290 290 289 288 288 287 286 285 285 284 282 281 280 279 278 277 276 275 274 273 273 272 272 271 271 270 270 269 269 268 267 267 266 265 264 264 263 263 263 263 264 265 266 266 266 266 265 264 263 264 264 264 264 263 263 263 264 264 263
311 310 310 309 309 308 307 306 306 304 303 302 300 299 298 297 296 295 294 294 293 293 293 293 292 292 291 291 290 290 289 288 288 287 286 285 284 283 281 280 279 278 277 276 275 274 273 273 272 272 272 272 271 271 270 269 268 267 267 266 265 265 264 264 264 263 263 264 265 266 266 266 266 265 264 264 264 264 264 264 263 262 262 262 262
312 311 310 309 308 308 307 306 305 304 304 303 301 301 299 298 297 296 296 295 294 294 294 294 294 293 293 292 291 291 290 289 289 288 287 286 285 284 283 282 280 279 277 276 276 275 274 274 273 273 273 272 272 272 271 270 270 269 268 267 267 266 265 265 264 264 264 264 264 265 265 265 266 265 264 264 264 264 264 264 264 262 261 261 260
314 313 313 312 311 310 309 308 307 306 305 303 302 301 300 299 299 298 297 296 296 295 295 295 295 294 294 293 293 292 291 291 290 290 289 287 286 285 284 282 281 280 279 277 277 276 275 274 274 273 273 273 272 272 271 271 271 270 270 269 269 268 267 266 265 264 264 264 264 265 265 265 266 266 265 264 264 264 264 264 264 263 262 262 261
314 314 314 314 313 313 312 311 310 309 308 306 305 303 302 301 300 299 299 298 298 297 297 297 296 295 295 294 294 293 293 292 292 291 290 289 287 286 284 283 281 280 278 277 277 276 276 275 275 275 274 274 274 273 273 273 272 272 271 271 271 270 270 269 268 266 265 265 264 264 265 265 266 266 266 265 265 265 264 263 262 261 261 260 260
315 315 315 315 314 313 312 311 311 310 309 308 307 306 305 303 302 301 300 300 299 299 299 299 298 297 296 295 295 295 294 294 293 292 292 291 289 288 286 283 281 279 277 276 275 274 274 273 273 273 272 271 271 271 271 271 271 271 271 271 270 270 270 270 270 269 268 267 266 265 264 263 264 265 266 267 266 265 264 261 260 259 259 258 258
316 316 315 315 314 313 312 312 311 311 310 310 309 307 306 305 304 303 302 301 300 300 299 299 298 298 297 297 296 296 295 295 295 293 293 292 291 290 288 285 283 281 279 278 277 276 275 275 274 272 272 271 270 268 268 268 268 268 269 269 269 270 271 271 270 270 270 269 268 266 265 264 263 264 265 265 266 265 263 260 258 257 257 256 256
317 317 316 315 315 314 313 313 313 312 312 310 309 308 307 306 305 304 303 302 301 300 299 299 298 298 298 297 297 297 297 297 295 294 293 292 291 289 287 284 283 281 280 280 280 279 279 278 276 275 274 274 272 271 269 269 269 269 270 270 270 270 271 271 271 271 271 270 269 267 266 265 264 263 263 263 264 264 262 260 258 256 255 255 255
318 318 317 316 316 315 315 315 314 314 313 311 310 309 308 307 306 304 303 302 301 300 299 298 298 297 297 297 297 297 297 297 296 295 294 293 291 288 285 283 282 281 281 281 281 281 280 279 278 277 276 275 275 274 272 271 271 270 270 270 269 269 269 268 269 270 270 270 269 268 267 266 265 263 263 262 261 261 260 259 257 256 255 254 254
320 319 318 317 317 316 316 315 315 315 314 313 312 311 310 308 307 305 304 303 301 300 299 297 296 296 296 296 296 297 297 297 296 295 295 294 292 288 284 282 281 281 280 280 280 280 280 279 279 278 278 277 276 276 275 274 273 272 271 270 269 269 269 268 267 267 268 267 267 268 267 265 264 264 263 261 259 258 258 256 252 249 251 254 254
321 320 319 318 317 316 316 316 316 315 314 313 313 312 311 310 308 306 305 303 302 301 299 297 296 295 295 295 295 296 297 296 296 296 296 295 292 288 285 283 282 281 280 279 279 278 278 278 279 279 278 277 277 277 277 278 279 279 278 276 273 272 271 270 269 268 268 267 266 266 266 264 263 263 262 260 258 255 253 251 247 243 247 252 254
321 319 318 318 317 317 317 316 316 315 314 314 313 312 311 310 309 307 305 304 303 301 300 298 296 295 294 294 294 295 295 296 296 296 296 296 293 289 287 285 283 281 279 278 277 277 277 278 278 279 278 277 276 276 277 280 282 284 285 285 283 280 276 274 273 273 271 269 267 266 264 262 261 259 258 257 255 252 247 243 239 238 242 247 250
320 319 319 318 318 318 317 316 316 316 315 315 314 313 312 311 310 308 306 305 304 302 300 299 297 296 295 294 293 293 294 294 295 295 296 296 294 290 288 286 284 281 279 278 277 277 277 277 278 277 276 275 274 275 276 278 280 280 282 285 286 285 282 280 279 278 275 272 268 265 262 258 255 254 253 251 250 247 243 238 234 234 238 243 246
320 319 319 318 318 317 317 317 317 316 316 316 315 315 314 313 311 310 308 307 305 303 301 299 298 297 295 295 294 293 294 294 294 295 296 296 294 291 288 286 284 282 280 279 278 278 277 276 276 275 273 273 275 276 276 277 277 276 278 282 284 283 283 284 284 283 280 275 268 260 255 250 247 247 247 246 244 241 239 240 239 237 238 241 244
320 319 319 319 318 318 318 318 318 318 318 317 317 317 316 315 313 311 309 308 306 304 303 301 299 298 297 296 295 294 295 294 294 295 296 295 294 292 289 287 286 284 283 281 280 279 278 276 274 272 272 273 275 276 275 274 274 274 277 280 281 280 282 284 285 285 283 279 270 259 248 240 235 235 237 237 237 235 236 240 241 239 241 244 246
320 320 320 320 319 319 319 319 319 319 319 319 319 318 318 316 314 313 311 309 307 306 304 303 301 300 299 298 296 296 295 295 295 296 296 295 294 292 289 287 286 286 285 284 283 281 279 275 272 270 270 271 271 273 274 272 272 273 275 277 278 282 285 285 283 283 282 279 274 261 246 235 230 230 231 230 230 229 231 234 236 237 241 245 248
320 321 321 320 320 320 320 320 320 321 320 320 320 320 319 318 316 314 312 309 308 307 306 304 303 302 301 299 298 297 296 295 295 296 296 295 293 290 287 286 286 286 286 284 282 280 278 275 273 271 269 268 267 270 273 272 272 271 270 272 278 286 288 283 280 281 280 278 275 261 244 236 233 230 229 229 228 225 225 230 233 234 237 242 247
321 321 321 321 320 320 320 321 321 321 321 321 320 321 320 319 317 315 313 310 309 308 307 305 304 303 302 300 299 297 296 296 296 297 297 295 292 288 285 284 285 285 283 280 279 278 277 276 274 273 272 270 270 272 274 274 272 270 268 271 277 281 281 278 277 276 275 275 271 257 243 241 240 234 230 229 228 225 222 226 230 231 234 241 246
321 322 321 321 321 320 321 321 321 321 321 321 321 322 322 320 319 317 314 311 310 309 307 306 305 303 303 301 300 298 297 297 298 299 297 295 291 287 283 282 281 279 277 277 278 278 278 277 277 277 276 275 273 272 272 273 273 273 272 272 272 269 269 271 272 271 271 268 263 252 244 244 242 238 235 231 228 225 223 224 228 228 230 237 243
322 322 322 321 321 321 321 321 321 322 322 322 322 323 323 322 320 319 316 313 311 309 308 307 306 305 304 303 301 300 299 300 301 299 297 294 291 286 282 279 277 275 276 277 278 278 279 280 281 280 278 274 270 268 270 274 277 278 276 274 271 267 264 263 265 267 266 261 253 246 244 244 241 240 240 236 231 229 227 225 227 228 228 232 238
322 322 322 322 321 321 321 322 322 322 322 322 322 323 324 323 322 321 318 314 312 311 309 308 307 306 305 304 302 302 302 302 301 299 297 294 290 286 282 279 278 278 279 278 278 278 279 279 278 276 274 273 270 268 270 274 277 278 278 277 276 271 265 260 261 263 261 254 247 242 242 244 244 243 243 241 237 235 233 228 227 229 230 232 236
322 323 322 322 322 322 322 322 322 322 322 322 322 324 325 325 324 323 320 316 313 312 311 309 308 307 306 305 304 304 304 303 301 300 298 296 293 289 286 284 283 283 282 280 278 277 276 275 273 273 273 274 273 270 269 271 275 279 279 277 275 270 263 257 256 258 257 251 243 240 243 246 247 246 245 244 242 240 238 232 228 228 230 231 234
322 323 322 322 322 322 322 323 323 323 322 322 323 324 325 326 326 325 322 318 315 314 312 311 309 308 306 304 304 305 306 305 304 302 301 300 299 296 294 292 290 287 285 284 280 276 274 272 270 271 273 274 274 270 266 267 274 280 279 275 270 263 254 248 249 252 254 248 243 243 244 244 244 244 244 244 243 242 240 235 230 229 230 232 234
322 323 322 322 322 322 323 323 323 323 323 323 323 324 326 327 327 327 325 320 317 315 313 311 309 306 305 304 306 307 307 307 307 307 306 306 305 303 303 303 302 299 297 295 290 287 284 278 272 270 270 272 272 269 264 264 270 276 277 275 271 258 243 240 244 246 245 243 243 244 243 240 239 240 241 242 243 243 242 240 236 234 234 234 236
322 322 322 322 322 322 323 324 324 324 324 324 324 325 326 327 328 328 326 322 318 316 313 311 309 306 305 306 308 309 310 310 311 310 310 310 309 309 309 310 310 308 305 302 299 298 295 288 280 273 269 267 265 261 257 259 265 272 277 280 278 259 239 234 238 239 235 234 238 241 241 239 238 237 238 240 242 242 241 240 238 238 237 236 236
322 322 323 323 323 323 324 325 326 326 326 326 325 325 326 327 328 328 328 325 322 318 314 312 311 308 306 308 309 310 310 311 311 311 311 310 309 309 310 311 310 308 304 302 303 302 297 291 285 278 269 260 252 248 250 254 260 272 284 287 283 266 243 234 234 234 232 233 236 236 235 236 238 237 237 239 241 242 241 238 235 236 238 238 237
322 323 323 323 324 324 325 326 326 326 326 326 326 326 326 327 328 328 328 327 324 319 314 311 308 304 303 305 307 307 308 308 308 308 308 308 307 307 309 310 308 304 302 302 303 302 297 291 286 279 267 253 244 244 250 253 258 272 287 289 286 275 253 241 236 233 231 233 234 231 228 234 240 239 238 240 243 244 243 239 237 237 238 238 239
322 323 324 324 324 325 326 326 327 327 327 326 327 327 326 327 328 329 329 329 327 322 316 309 304 301 300 301 303 304 305 306 306 305 306 306 306 306 308 310 306 301 300 302 302 300 297 291 284 277 265 251 243 245 251 255 259 271 281 287 293 290 268 249 240 235 230 230 230 226 224 232 241 241 238 241 246 247 246 242 239 239 240 241 241
322 324 324 324 325 326 326 327 327 327 327 327 327 327 327 327 328 329 329 330 329 326 318 310 304 300 298 297 298 299 300 301 302 302 304 305 304 306 308 308 304 300 300 301 299 298 295 289 281 276 266 251 243 243 249 255 259 266 275 282 292 302 296 267 246 238 231 227 225 222 220 226 237 240 238 240 245 249 250 247 241 240 242 243 243
322 324 324 324 324 325 326 326 326 326 326 327 327 327 327 327 328 328 329 330 330 329 324 314 307 303 299 296 295 295 296 296 296 298 300 300 301 304 306 305 301 300 299 300 299 298 295 288 279 272 265 254 245 242 246 252 256 260 268 276 284 295 308 304 268 242 232 227 223 219 217 219 228 234 235 238 243 248 253 252 245 240 242 244 242
322 323 324 324 324 325 326 326 326 326 327 327 327 327 328 328 328 328 329 329 330 330 329 323 314 307 303 300 298 296 296 295 294 295 296 297 300 303 304 303 301 299 298 298 299 299 297 292 282 272 265 257 248 243 244 249 253 256 261 268 275 282 293 306 304 261 234 228 224 221 218 218 222 227 228 232 237 243 248 251 248 243 243 242 239
322 323 323 323 324 325 326 327 327 327 327 327 327 327 328 328 328 328 329 329 329 329 330 328 322 314 308 304 301 299 298 297 295 295 296 298 300 303 303 303 302 300 297 297 298 298 297 294 286 275 268 261 252 246 245 246 250 254 257 261 266 270 276 289 301 292 244 227 224 224 222 222 225 227 224 223 229 236 239 243 245 244 242 239 235
322 322 323 323 324 325 326 327 327 326 326 327 327 327 328 328 328 329 329 329 329 328 328 328 327 321 314 308 304 301 299 297 295 295 296 298 300 302 302 303 302 300 298 297 296 296 295 293 287 278 270 264 256 249 246 246 248 251 254 256 259 262 264 271 282 289 267 231 223 223 223 224 226 227 221 216 218 225 230 234 239 243 243 238 234
323 323 323 323 324 325 326 327 327 327 327 327 327 327 328 328 328 329 329 329 329 328 328 328 328 325 320 313 307 303 300 297 294 293 294 296 298 299 299 300 300 298 296 294 293 293 292 290 287 279 271 266 260 252 248 247 247 248 250 252 255 257 258 258 263 272 275 253 230 222 222 223 224 222 217 212 210 213 220 229 236 242 243 237 228
325 324 324 323 324 325 326 327 327 327 327 327 327 327 327 328 328 329 330 330 330 329 328 327 327 326 323 318 312 306 302 299 295 293 292 293 294 295 296 296 296 294 292 290 290 290 289 288 285 279 272 267 261 255 250 248 247 247 247 249 251 252 253 253 253 255 263 266 247 228 222 221 218 213 209 208 207 209 217 225 231 236 234 223 210
327 326 325 325 325 325 326 327 327 327 327 327 326 326 327 328 328 329 330 330 330 329 328 327 327 326 324 321 316 311 306 302 298 296 294 293 293 293 294 294 294 293 291 289 288 289 288 287 285 280 273 267 262 257 253 250 248 247 246 246 247 248 248 249 249 248 249 254 253 240 226 217 210 204 202 204 207 212 217 222 221 218 210 197 188
329 329 329 328 327 327 327 327 327 327 327 327 326 326 327 327 328 329 329 330 330 329 329 327 326 325 324 322 318 314 310 305 301 298 297 296 295 294 294 294 294 293 291 288 288 287 287 287 284 280 274 268 263 259 255 251 250 248 246 245 246 246 245 245 245 246 245 242 243 242 229 216 207 202 202 205 208 212 217 218 212 202 191 184 183
332 332 331 331 329 328 328 327 327 328 327 327 327 326 326 327 328 328 329 329 329 329 328 328 326 325 324 322 320 316 312 307 303 300 298 297 297 295 294 294 294 294 291 289 287 286 287 286 284 280 275 269 264 261 257 254 251 249 247 246 245 245 244 242 241 242 243 241 237 235 229 219 210 205 205 208 211 212 214 212 205 196 189 186 188
334 334 334 333 332 331 330 329 329 328 328 328 327 327 326 326 327 327 328 328 328 328 328 327 326 324 323 322 320 317 313 308 304 300 298 297 296 295 294 293 293 293 292 289 286 285 285 285 283 280 275 270 265 262 259 256 253 250 248 246 245 244 243 241 239 238 240 239 237 233 227 221 214 209 209 211 211 210 209 206 199 192 186 184 187
334 334 334 334 334 334 333 332 331 330 329 329 328 327 326 326 326 326 326 327 327 327 327 327 326 325 323 321 319 318 315 310 304 299 297 295 295 294 293 291 291 291 290 288 286 284 284 284 282 279 275 270 265 262 260 257 254 251 249 247 246 244 242 241 238 236 236 237 237 233 228 223 218 215 213 210 207 205 204 201 195 189 184 184 186
334 334 335 335 335 335 334 334 333 332 331 329 328 327 327 326 326 326 326 326 326 326 326 326 325 324 323 321 319 317 316 312 307 301 296 294 293 292 291 289 288 288 288 286 285 283 283 283 281 278 275 271 265 262 259 257 254 252 250 248 246 245 243 240 238 235 234 234 234 233 229 224 220 219 216 211 205 201 201 200 196 193 191 190 191
335 335 336 336 336 335 335 335 334 333 331 330 329 328 327 326 326 326 326 326 326 326 326 326 325 324 323 321 319 317 315 313 309 304 297 293 291 290 288 287 286 285 284 284 283 281 280 280 279 278 275 272 267 262 258 255 253 251 249 248 246 244 242 240 237 235 233 232 232 232 231 227 222 220 219 215 208 202 200 200 200 199 198 198 197
337 337 337 337 337 337 336 336 335 334 333 331 330 329 328 327 326 326 326 326 326 325 325 325 324 323 322 321 319 316 314 312 310 306 300 294 290 287 286 285 283 282 282 281 280 278 278 277 276 275 273 271 269 264 258 254 251 250 249 247 245 242 240 239 236 233 231 230 230 230 230 228 225 222 219 218 214 207 203 202 203 204 205 205 205
338 339 339 339 339 339 338 337 337 335 334 332 331 330 328 327 326 326 326 326 326 325 325 324 324 323 321 320 318 316 314 311 309 307 302 296 290 285 283 282 280 279 279 278 276 276 275 273 273 273 271 269 268 265 259 254 249 247 247 246 243 240 238 236 235 232 229 228 228 228 229 228 227 224 221 219 217 214 209 206 206 207 209 211 212
339 339 340 341 341 341 340 339 338 337 335 334 332 330 329 328 327 326 326 326 326 326 325 324 323 322 321 319 318 316 314 311 308 306 303 298 292 285 282 279 277 276 275 274 273 272 272 271 270 270 268 267 266 264 260 254 249 245 244 243 241 238 235 234 232 230 227 225 225 226 227 227 227 225 223 221 219 217 215 213 212 212 213 216 217
338 339 340 341 342 342 341 341 340 339 337 335 333 331 330 328 327 327 327 327 327 327 326 325 323 322 320 319 317 315 313 311 308 305 302 299 294 287 281 277 274 272 272 271 270 268 268 268 268 266 265 264 264 262 259 254 248 244 242 241 239 236 233 231 229 228 226 224 224 224 225 226 225 225 224 222 220 219 219 218 217 217 218 220 222
337 338 339 340 341 341 342 342 341 340 339 337 335 332 331 329 328 327 327 328 328 328 327 326 324 322 320 318 316 315 313 311 307 304 301 299 295 289 282 276 273 270 268 268 267 266 264 264 264 263 261 261 261 260 258 253 247 243 241 239 236 234 232 229 227 225 223 222 222 222 223 224 223 223 222 222 221 221 221 221 221 221 222 223 224